RYR9ZE LGSA-EPKK

Flight info

Callsign RYR9ZE
Flight time N/A
Altitude 37000
Route SOKRI UY151 VELOP DCT ATV UM749 SKP UL617 BAMOS DCT PEREN DCT ATFIR N133 USALI DCT ERDOM DCT NARKA DCT KSC DCT KOJOT DCT RAZEC N133 LENOV
Aircraft B738/M-SDE2E3FGHIRWXY/LB1

Departure

Time 2026-04-30 05:34
Airport Chania International Airport (LGSA)

Arrival

Time N/A
Airport Kraków John Paul II International Airport (EPKK)
Time Latitude Longitude Altitude Speed Heading
2026-04-30 05:13 35.53927 24.13868 414 ft 0 kts 22°
2026-04-30 05:23 35.53923 24.13867 414 ft 2 kts 22°
2026-04-30 05:23 35.53909 24.13860 415 ft 2 kts 21°
2026-04-30 05:23 35.53895 24.13853 415 ft 2 kts 21°
2026-04-30 05:23 35.53886 24.13848 416 ft 2 kts 21°
2026-04-30 05:24 35.53867 24.13839 416 ft 2 kts 21°
2026-04-30 05:24 35.53853 24.13832 417 ft 2 kts 22°
2026-04-30 05:24 35.53839 24.13825 417 ft 2 kts 22°
2026-04-30 05:24 35.53833 24.13822 417 ft 0 kts 22°
2026-04-30 05:26 35.53834 24.13823 417 ft 0 kts 25°
2026-04-30 05:26 35.53846 24.13858 417 ft 6 kts 103°
2026-04-30 05:27 35.53836 24.13896 418 ft 8 kts 108°
2026-04-30 05:27 35.53806 24.13991 421 ft 7 kts 120°
2026-04-30 05:27 35.53752 24.13999 423 ft 10 kts 202°
2026-04-30 05:27 35.53678 24.13999 426 ft 14 kts 131°
2026-04-30 05:28 35.53646 24.14086 428 ft 18 kts 111°
2026-04-30 05:28 35.53580 24.14292 432 ft 18 kts 111°
2026-04-30 05:28 35.53550 24.14386 434 ft 17 kts 112°
2026-04-30 05:28 35.53481 24.14597 438 ft 21 kts 111°
2026-04-30 05:29 35.53429 24.14756 442 ft 18 kts 112°
2026-04-30 05:29 35.53385 24.14896 446 ft 18 kts 111°
2026-04-30 05:29 35.53334 24.15050 449 ft 19 kts 112°
2026-04-30 05:29 35.53286 24.15192 452 ft 17 kts 112°
2026-04-30 05:30 35.53239 24.15340 453 ft 19 kts 111°
2026-04-30 05:30 35.53205 24.15445 454 ft 20 kts 111°
2026-04-30 05:30 35.53148 24.15620 459 ft 22 kts 112°
2026-04-30 05:30 35.53066 24.15874 463 ft 25 kts 111°
2026-04-30 05:31 35.52999 24.16080 467 ft 25 kts 111°
2026-04-30 05:31 35.52938 24.16265 473 ft 21 kts 112°
2026-04-30 05:31 35.52885 24.16427 478 ft 22 kts 111°
2026-04-30 05:31 35.52821 24.16625 482 ft 25 kts 112°
2026-04-30 05:32 35.52759 24.16816 483 ft 18 kts 111°
2026-04-30 05:32 35.52698 24.16883 486 ft 10 kts 198°
2026-04-30 05:32 35.52658 24.16864 489 ft 9 kts 204°
2026-04-30 05:32 35.52589 24.16786 493 ft 11 kts 274°
2026-04-30 05:33 35.52654 24.16574 491 ft 54 kts 291°
2026-04-30 05:33 35.52875 24.15894 473 ft 115 kts 291°
2026-04-30 05:33 35.53105 24.15190 462 ft 149 kts 291°
2026-04-30 05:33 35.53689 24.13404 809 ft 174 kts 291°
2026-04-30 05:34 35.54129 24.12009 1385 ft 177 kts 291°
2026-04-30 05:34 35.54596 24.10548 1793 ft 193 kts 292°
2026-04-30 05:34 35.54939 24.09523 2078 ft 201 kts 293°
2026-04-30 05:34 35.55673 24.07325 2697 ft 213 kts 292°
2026-04-30 05:35 35.56235 24.05637 3259 ft 216 kts 296°
2026-04-30 05:35 35.57189 24.04232 3785 ft 220 kts 328°
2026-04-30 05:35 35.58648 24.03692 4355 ft 223 kts 357°
2026-04-30 05:35 35.60203 24.03874 4894 ft 227 kts
2026-04-30 05:36 35.61773 24.04143 5438 ft 229 kts
2026-04-30 05:36 35.63366 24.04377 5944 ft 235 kts
2026-04-30 05:36 35.65056 24.04559 6377 ft 245 kts 359°
2026-04-30 05:36 35.66695 24.04225 6999 ft 245 kts 335°
2026-04-30 05:37 35.68184 24.03096 7367 ft 257 kts 321°
2026-04-30 05:37 35.69629 24.01656 7745 ft 271 kts 319°
2026-04-30 05:37 35.71108 24.00154 8275 ft 278 kts 320°
2026-04-30 05:37 35.72618 23.98652 8938 ft 281 kts 320°
2026-04-30 05:38 35.74152 23.97153 9645 ft 282 kts 320°
2026-04-30 05:38 35.75691 23.95659 10311 ft 285 kts 320°
2026-04-30 05:38 35.77263 23.94134 10872 ft 292 kts 320°
2026-04-30 05:38 35.78869 23.92576 11563 ft 295 kts 320°
2026-04-30 05:39 35.80495 23.90998 12241 ft 299 kts 320°
2026-04-30 05:39 35.82149 23.89393 12948 ft 301 kts 320°
2026-04-30 05:39 35.83805 23.87786 13627 ft 304 kts 320°
2026-04-30 05:39 35.85467 23.86172 14337 ft 306 kts 320°
2026-04-30 05:40 35.87147 23.84540 15045 ft 308 kts 320°
2026-04-30 05:40 35.88855 23.82882 15727 ft 311 kts 320°
2026-04-30 05:40 35.90564 23.81224 16425 ft 313 kts 320°
2026-04-30 05:40 35.92278 23.79560 17102 ft 315 kts 320°
2026-04-30 05:41 35.93448 23.78424 17553 ft 316 kts 320°
2026-04-30 05:41 35.95757 23.76184 18410 ft 319 kts 320°
2026-04-30 05:41 35.97528 23.74465 18998 ft 323 kts 320°
2026-04-30 05:41 35.99306 23.72740 19590 ft 326 kts 320°
2026-04-30 05:42 36.00494 23.71589 19996 ft 327 kts 321°
2026-04-30 05:42 36.02909 23.69266 20766 ft 330 kts 321°
2026-04-30 05:42 36.04720 23.67528 21273 ft 334 kts 321°
2026-04-30 05:42 36.06590 23.65732 21830 ft 336 kts 321°
2026-04-30 05:43 36.07816 23.64555 22179 ft 338 kts 321°
2026-04-30 05:43 36.10323 23.62143 22870 ft 341 kts 321°
2026-04-30 05:43 36.12208 23.60328 23338 ft 345 kts 321°
2026-04-30 05:43 36.14113 23.58491 23902 ft 345 kts 321°
2026-04-30 05:44 36.16013 23.56659 24412 ft 347 kts 320°
2026-04-30 05:44 36.17921 23.54818 24905 ft 348 kts 320°
2026-04-30 05:44 36.19848 23.52957 25359 ft 350 kts 320°
2026-04-30 05:44 36.21769 23.51099 25828 ft 352 kts 320°
2026-04-30 05:45 36.23750 23.49273 26272 ft 354 kts 323°
2026-04-30 05:45 36.25908 23.47707 26710 ft 358 kts 333°
2026-04-30 05:45 36.28265 23.46672 27146 ft 363 kts 342°
2026-04-30 05:45 36.30765 23.45994 27541 ft 367 kts 346°
2026-04-30 05:46 36.33294 23.45460 27915 ft 370 kts 347°
2026-04-30 05:46 36.34988 23.45135 28191 ft 370 kts 347°
2026-04-30 05:46 36.38431 23.44489 28713 ft 372 kts 347°
2026-04-30 05:46 36.41025 23.43992 29074 ft 374 kts 347°
2026-04-30 05:47 36.43600 23.43488 29474 ft 374 kts 346°
2026-04-30 05:47 36.46214 23.42966 29752 ft 378 kts 346°
2026-04-30 05:47 36.48845 23.42431 30101 ft 379 kts 346°
2026-04-30 05:47 36.51468 23.41895 30421 ft 381 kts 346°
2026-04-30 05:48 36.54096 23.41355 30788 ft 382 kts 346°
2026-04-30 05:48 36.55853 23.40992 30956 ft 384 kts 346°
2026-04-30 05:48 36.59379 23.40262 31393 ft 386 kts 346°
2026-04-30 05:48 36.62057 23.39707 31650 ft 389 kts 346°
2026-04-30 05:49 36.64738 23.39150 31947 ft 391 kts 346°
2026-04-30 05:49 36.67437 23.38590 32298 ft 391 kts 346°
2026-04-30 05:49 36.70135 23.38030 32586 ft 393 kts 346°
2026-04-30 05:49 36.72876 23.37459 32821 ft 396 kts 346°
2026-04-30 05:50 36.75593 23.36894 33131 ft 397 kts 346°
2026-04-30 05:50 36.78326 23.36324 33382 ft 399 kts 346°
2026-04-30 05:50 36.81084 23.35748 33587 ft 402 kts 346°
2026-04-30 05:50 36.83853 23.35170 33879 ft 403 kts 346°
2026-04-30 05:51 36.86626 23.34592 34161 ft 404 kts 346°
2026-04-30 05:51 36.89392 23.34013 34359 ft 407 kts 346°
2026-04-30 05:51 36.92214 23.33423 34602 ft 408 kts 345°
2026-04-30 05:51 36.95023 23.32835 34815 ft 410 kts 345°
2026-04-30 05:52 36.97870 23.32239 35009 ft 412 kts 345°
2026-04-30 05:52 37.00683 23.31651 35286 ft 411 kts 345°
2026-04-30 05:52 37.03519 23.31056 35502 ft 413 kts 345°
2026-04-30 05:52 37.06359 23.30461 35750 ft 413 kts 345°
2026-04-30 05:53 37.09186 23.29870 36038 ft 411 kts 345°
2026-04-30 05:53 37.12019 23.29277 36386 ft 410 kts 345°
2026-04-30 05:53 37.14891 23.28793 36709 ft 413 kts 349°
2026-04-30 05:53 37.17763 23.28685 36992 ft 417 kts 355°
2026-04-30 05:54 37.20682 23.29189 37043 ft 431 kts
2026-04-30 05:54 37.23492 23.30627 37054 ft 441 kts 22°
2026-04-30 05:54 37.28754 23.34759 37044 ft 448 kts 32°
2026-04-30 05:55 37.33243 23.40266 37045 ft 452 kts 36°
2026-04-30 05:55 37.38248 23.44900 37047 ft 442 kts 25°
2026-04-30 05:56 37.43586 23.48784 37044 ft 441 kts 22°
2026-04-30 05:56 37.49002 23.52496 37041 ft 441 kts 22°
2026-04-30 05:57 37.54397 23.56199 37039 ft 440 kts 22°
2026-04-30 05:57 37.59739 23.59905 37040 ft 441 kts 22°
2026-04-30 05:58 37.65111 23.63662 37041 ft 439 kts 22°
2026-04-30 05:58 37.70479 23.67432 37042 ft 439 kts 23°
2026-04-30 05:59 37.75826 23.71200 37036 ft 440 kts 23°
2026-04-30 05:59 37.81182 23.74981 37041 ft 440 kts 23°
2026-04-30 06:00 37.86628 23.78513 37040 ft 432 kts 15°
2026-04-30 06:00 37.89500 23.79555 37044 ft 422 kts
2026-04-30 06:00 37.92378 23.79836 37048 ft 415 kts 353°
2026-04-30 06:01 37.98133 23.79297 37046 ft 412 kts 348°
2026-04-30 06:01 38.03849 23.78422 37044 ft 410 kts 347°
2026-04-30 06:02 38.09519 23.77534 37047 ft 411 kts 347°
2026-04-30 06:02 38.15225 23.76671 37049 ft 412 kts 348°
2026-04-30 06:03 38.20953 23.75827 37050 ft 413 kts 348°
2026-04-30 06:03 38.26690 23.74995 37059 ft 413 kts 348°
2026-04-30 06:04 38.32428 23.74163 37057 ft 414 kts 348°
2026-04-30 06:05 38.41037 23.72914 37061 ft 414 kts 348°
2026-04-30 06:05 38.46770 23.72081 37059 ft 414 kts 348°
2026-04-30 06:06 38.52524 23.71243 37052 ft 415 kts 348°
2026-04-30 06:06 38.58304 23.70400 37055 ft 415 kts 348°
2026-04-30 06:07 38.64042 23.69562 37044 ft 415 kts 348°
2026-04-30 06:07 38.69799 23.68719 37039 ft 415 kts 348°
2026-04-30 06:08 38.75552 23.67877 37039 ft 415 kts 348°
2026-04-30 06:08 38.81287 23.67036 37035 ft 414 kts 348°
2026-04-30 06:09 38.87054 23.66188 37034 ft 414 kts 348°
2026-04-30 06:09 38.92790 23.65342 37037 ft 415 kts 348°
2026-04-30 06:10 38.98582 23.64487 37040 ft 415 kts 348°
2026-04-30 06:10 39.04357 23.63633 37050 ft 416 kts 348°
2026-04-30 06:11 39.10112 23.62781 37045 ft 415 kts 348°
2026-04-30 06:11 39.15854 23.61849 37051 ft 412 kts 345°
2026-04-30 06:12 39.21400 23.60062 37053 ft 407 kts 337°
2026-04-30 06:12 39.26747 23.57702 37046 ft 409 kts 339°
2026-04-30 06:12 39.29586 23.56951 37050 ft 416 kts 350°
2026-04-30 06:13 39.32485 23.57029 37054 ft 425 kts
2026-04-30 06:13 39.38380 23.58539 37050 ft 430 kts
2026-04-30 06:14 39.44205 23.60422 37055 ft 431 kts
2026-04-30 06:14 39.50024 23.62315 37049 ft 431 kts
2026-04-30 06:15 39.55858 23.64173 37049 ft 430 kts
2026-04-30 06:15 39.61688 23.66000 37051 ft 430 kts
2026-04-30 06:16 39.67504 23.67810 37051 ft 430 kts
2026-04-30 06:16 39.73354 23.69626 37049 ft 430 kts
2026-04-30 06:17 39.79196 23.71442 37051 ft 431 kts
2026-04-30 06:17 39.85051 23.73262 37048 ft 431 kts
2026-04-30 06:18 39.90899 23.75086 37049 ft 431 kts
2026-04-30 06:18 39.96724 23.76905 37050 ft 431 kts
2026-04-30 06:19 40.02573 23.78734 37050 ft 431 kts
2026-04-30 06:19 40.08442 23.80574 37051 ft 430 kts
2026-04-30 06:20 40.14283 23.82407 37053 ft 431 kts
2026-04-30 06:20 40.20126 23.84243 37055 ft 432 kts
2026-04-30 06:21 40.26014 23.86098 37056 ft 431 kts
2026-04-30 06:21 40.31824 23.87933 37059 ft 431 kts
2026-04-30 06:22 40.37659 23.89778 37058 ft 431 kts
2026-04-30 06:22 40.43506 23.91629 37061 ft 430 kts
2026-04-30 06:23 40.49326 23.93476 37060 ft 431 kts
2026-04-30 06:23 40.55178 23.95314 37063 ft 431 kts
2026-04-30 06:24 40.61084 23.96228 37064 ft 418 kts 352°
2026-04-30 06:24 40.66851 23.95337 37063 ft 413 kts 344°
2026-04-30 06:25 40.72447 23.93946 37065 ft 410 kts 343°
2026-04-30 06:25 40.78085 23.92498 37068 ft 412 kts 343°
2026-04-30 06:26 40.83740 23.91092 37067 ft 412 kts 344°
2026-04-30 06:26 40.89375 23.89725 37068 ft 412 kts 344°
2026-04-30 06:27 40.95061 23.88358 37068 ft 413 kts 344°
2026-04-30 06:27 41.00737 23.86998 37069 ft 413 kts 344°
2026-04-30 06:28 41.06397 23.85640 37074 ft 412 kts 344°
2026-04-30 06:28 41.12053 23.84282 37081 ft 411 kts 344°
2026-04-30 06:29 41.17683 23.82926 37069 ft 411 kts 344°
2026-04-30 06:29 41.23324 23.81564 37075 ft 411 kts 343°
2026-04-30 06:30 41.28974 23.80197 37079 ft 412 kts 343°
2026-04-30 06:30 41.34613 23.78831 37077 ft 411 kts 343°
2026-04-30 06:31 41.40248 23.77467 37078 ft 410 kts 344°
2026-04-30 06:31 41.45958 23.76438 37078 ft 413 kts 348°
2026-04-30 06:32 41.51633 23.75704 37078 ft 414 kts 348°
2026-04-30 06:32 41.57241 23.74985 37081 ft 414 kts 348°
2026-04-30 06:33 41.62965 23.74214 37084 ft 414 kts 347°
2026-04-30 06:33 41.68718 23.73413 37082 ft 412 kts 347°
2026-04-30 06:34 41.74429 23.72604 37082 ft 413 kts 347°
2026-04-30 06:34 41.80185 23.71783 37084 ft 412 kts 347°
2026-04-30 06:35 41.85911 23.70962 37083 ft 412 kts 347°
2026-04-30 06:35 41.91592 23.70146 37084 ft 412 kts 347°
2026-04-30 06:36 41.97300 23.69324 37082 ft 412 kts 347°
2026-04-30 06:36 42.03031 23.68499 37082 ft 411 kts 347°
2026-04-30 06:37 42.08724 23.67676 37083 ft 412 kts 347°
2026-04-30 06:37 42.14486 23.66842 37083 ft 411 kts 347°
2026-04-30 06:38 42.20188 23.66017 37084 ft 411 kts 347°
2026-04-30 06:38 42.25897 23.65185 37080 ft 412 kts 347°
2026-04-30 06:39 42.31561 23.64260 37080 ft 410 kts 343°
2026-04-30 06:39 42.37172 23.62751 37080 ft 406 kts 340°
2026-04-30 06:40 42.42717 23.61066 37089 ft 407 kts 340°
2026-04-30 06:40 42.48267 23.59397 37104 ft 407 kts 341°
2026-04-30 06:41 42.53802 23.57768 37111 ft 408 kts 341°
2026-04-30 06:41 42.59390 23.56136 37112 ft 409 kts 341°
2026-04-30 06:42 42.64964 23.54519 37129 ft 408 kts 341°
2026-04-30 06:42 42.70535 23.52898 37147 ft 408 kts 341°
2026-04-30 06:43 42.76123 23.51268 37138 ft 408 kts 341°
2026-04-30 06:43 42.81656 23.49654 37140 ft 409 kts 341°
2026-04-30 06:44 42.87271 23.48009 37130 ft 409 kts 340°
2026-04-30 06:44 42.92835 23.46380 37118 ft 410 kts 340°
2026-04-30 06:45 42.98432 23.44738 37100 ft 409 kts 341°
2026-04-30 06:45 43.04012 23.43097 37090 ft 409 kts 340°
2026-04-30 06:46 43.09611 23.41447 37106 ft 411 kts 340°
2026-04-30 06:46 43.15204 23.39796 37112 ft 410 kts 341°
2026-04-30 06:47 43.20782 23.38146 37152 ft 409 kts 341°
2026-04-30 06:47 43.26390 23.36480 37139 ft 411 kts 341°
2026-04-30 06:48 43.31951 23.34831 37160 ft 411 kts 340°
2026-04-30 06:48 43.37604 23.33151 37161 ft 411 kts 340°
2026-04-30 06:49 43.43213 23.31478 37158 ft 410 kts 340°
2026-04-30 06:49 43.48786 23.29814 37183 ft 412 kts 340°
2026-04-30 06:50 43.54395 23.28081 37176 ft 410 kts 339°
2026-04-30 06:50 43.59921 23.26109 37164 ft 408 kts 338°
2026-04-30 06:50 43.62663 23.25096 37280 ft 410 kts 338°
2026-04-30 06:51 43.65420 23.24079 36985 ft 408 kts 338°
2026-04-30 06:51 43.68167 23.23073 37206 ft 408 kts 338°
2026-04-30 06:51 43.70923 23.22065 37176 ft 407 kts 338°
2026-04-30 06:52 43.76449 23.20055 37192 ft 409 kts 338°
2026-04-30 06:52 43.81948 23.18063 37188 ft 409 kts 338°
2026-04-30 06:53 43.87446 23.16070 37203 ft 409 kts 338°
2026-04-30 06:53 43.92977 23.14066 37201 ft 408 kts 338°
2026-04-30 06:54 43.98487 23.12061 37213 ft 410 kts 338°
2026-04-30 06:54 44.04002 23.10053 37195 ft 409 kts 339°
2026-04-30 06:55 44.09522 23.08038 37223 ft 412 kts 339°
2026-04-30 06:55 44.15111 23.05992 37204 ft 411 kts 339°
2026-04-30 06:56 44.20620 23.03976 37207 ft 411 kts 339°
2026-04-30 06:56 44.26204 23.01924 37207 ft 411 kts 339°
2026-04-30 06:57 44.31740 22.99887 37199 ft 413 kts 339°
2026-04-30 06:57 44.37300 22.97839 37217 ft 411 kts 339°
2026-04-30 06:58 44.42877 22.95776 37207 ft 415 kts 339°
2026-04-30 06:58 44.48454 22.93716 37196 ft 412 kts 339°
2026-04-30 06:59 44.54050 22.91641 37210 ft 415 kts 339°
2026-04-30 06:59 44.59623 22.89574 37232 ft 414 kts 339°
2026-04-30 07:00 44.65205 22.87496 37220 ft 413 kts 339°
2026-04-30 07:00 44.70793 22.85412 37217 ft 415 kts 339°
2026-04-30 07:01 44.76410 22.83311 37216 ft 415 kts 340°
2026-04-30 07:01 44.82006 22.81217 37224 ft 416 kts 340°
2026-04-30 07:02 44.87624 22.79108 37195 ft 416 kts 340°
2026-04-30 07:02 44.93239 22.76998 37200 ft 416 kts 340°
2026-04-30 07:03 44.98837 22.74892 37189 ft 416 kts 340°
2026-04-30 07:03 45.04480 22.72761 37185 ft 417 kts 340°
2026-04-30 07:04 45.10117 22.70630 37160 ft 417 kts 340°
2026-04-30 07:04 45.15735 22.68504 37135 ft 416 kts 340°
2026-04-30 07:05 45.24144 22.65307 37119 ft 418 kts 340°
2026-04-30 07:05 45.29764 22.63164 37121 ft 417 kts 340°
2026-04-30 07:06 45.35394 22.61015 37136 ft 418 kts 340°
2026-04-30 07:06 45.41023 22.58864 37161 ft 416 kts 341°
2026-04-30 07:07 45.46631 22.56714 37187 ft 418 kts 341°
2026-04-30 07:07 45.52231 22.54563 37200 ft 418 kts 341°
2026-04-30 07:08 45.57870 22.52391 37191 ft 418 kts 341°